QFA107 YPKG-YPPH

Flight info

Callsign QFA107
Flight time 0h 56m
Altitude 36000
Route KG Q41 MALUP Q158 PH
Aircraft A320/M-SDE3FGHIRWY/LB1

Departure

Time 2026-04-12 08:44
Airport Kalgoorlie Boulder Airport (YPKG)

Arrival

Time 2026-04-12 09:40
Airport Perth International Airport (YPPH)
Time Latitude Longitude Altitude Speed Heading
2026-04-12 08:24 -30.78593 121.45803 1182 ft 0 kts 59°
2026-04-12 08:39 -30.78593 121.45806 1181 ft 1 kts 72°
2026-04-12 08:40 -30.78596 121.45813 1181 ft 2 kts 111°
2026-04-12 08:40 -30.78610 121.45820 1181 ft 3 kts 169°
2026-04-12 08:40 -30.78636 121.45811 1181 ft 5 kts 200°
2026-04-12 08:40 -30.78675 121.45793 1181 ft 7 kts 202°
2026-04-12 08:41 -30.78728 121.45771 1182 ft 9 kts 199°
2026-04-12 08:41 -30.78791 121.45745 1182 ft 10 kts 199°
2026-04-12 08:41 -30.78843 121.45723 1182 ft 8 kts 199°
2026-04-12 08:41 -30.78889 121.45700 1183 ft 8 kts 217°
2026-04-12 08:42 -30.78896 121.45641 1183 ft 9 kts 295°
2026-04-12 08:42 -30.78870 121.45578 1184 ft 9 kts 295°
2026-04-12 08:42 -30.78856 121.45527 1184 ft 7 kts 272°
2026-04-12 08:42 -30.78856 121.45473 1184 ft 7 kts 318°
2026-04-12 08:43 -30.78843 121.45500 1184 ft 5 kts 96°
2026-04-12 08:43 -30.78850 121.45524 1184 ft 0 kts 111°
2026-04-12 08:43 -30.78851 121.45524 1184 ft 2 kts 111°
2026-04-12 08:43 -30.78927 121.45764 1184 ft 68 kts 110°
2026-04-12 08:44 -30.79169 121.46524 1178 ft 128 kts 110°
2026-04-12 08:44 -30.79498 121.47585 1483 ft 146 kts 107°
2026-04-12 08:44 -30.79832 121.48738 2080 ft 150 kts 104°
2026-04-12 08:44 -30.80108 121.49915 2621 ft 154 kts 102°
2026-04-12 08:45 -30.80328 121.51129 3138 ft 152 kts 97°
2026-04-12 08:45 -30.80487 121.52329 3623 ft 149 kts 94°
2026-04-12 08:45 -30.80598 121.53519 4096 ft 148 kts 92°
2026-04-12 08:45 -30.80749 121.54698 4562 ft 148 kts 110°
2026-04-12 08:46 -30.81471 121.55639 4575 ft 179 kts 160°
2026-04-12 08:46 -30.82733 121.55604 4879 ft 187 kts 209°
2026-04-12 08:46 -30.84719 121.53227 5576 ft 229 kts 232°
2026-04-12 08:47 -30.85640 121.51595 5974 ft 254 kts 240°
2026-04-12 08:47 -30.86480 121.49717 6635 ft 267 kts 243°
2026-04-12 08:47 -30.87292 121.47755 7459 ft 272 kts 244°
2026-04-12 08:47 -30.88108 121.45757 8320 ft 275 kts 244°
2026-04-12 08:48 -30.88944 121.43735 9176 ft 278 kts 243°
2026-04-12 08:48 -30.89801 121.41698 10007 ft 282 kts 243°
2026-04-12 08:48 -30.90708 121.39572 10360 ft 304 kts 243°
2026-04-12 08:48 -30.91673 121.37333 10734 ft 320 kts 243°
2026-04-12 08:49 -30.92681 121.34998 11396 ft 326 kts 243°
2026-04-12 08:49 -30.93706 121.32623 12089 ft 330 kts 243°
2026-04-12 08:49 -30.94743 121.30223 12811 ft 333 kts 243°
2026-04-12 08:49 -30.95790 121.27800 13536 ft 337 kts 243°
2026-04-12 08:50 -30.96853 121.25344 14194 ft 342 kts 243°
2026-04-12 08:50 -30.97928 121.22864 14832 ft 344 kts 243°
2026-04-12 08:50 -30.99013 121.20360 15471 ft 348 kts 243°
2026-04-12 08:50 -31.00106 121.17824 16082 ft 351 kts 243°
2026-04-12 08:51 -31.01205 121.15264 16735 ft 354 kts 244°
2026-04-12 08:51 -31.02313 121.12683 17352 ft 358 kts 244°
2026-04-12 08:51 -31.03435 121.10076 17979 ft 361 kts 244°
2026-04-12 08:51 -31.04565 121.07451 18590 ft 364 kts 244°
2026-04-12 08:52 -31.05709 121.04793 19144 ft 368 kts 244°
2026-04-12 08:52 -31.06859 121.02115 19714 ft 371 kts 244°
2026-04-12 08:52 -31.08017 120.99413 20298 ft 374 kts 244°
2026-04-12 08:52 -31.09186 120.96684 20867 ft 377 kts 244°
2026-04-12 08:53 -31.10365 120.93935 21413 ft 381 kts 244°
2026-04-12 08:53 -31.11556 120.91161 21955 ft 384 kts 244°
2026-04-12 08:53 -31.12739 120.88401 22482 ft 387 kts 244°
2026-04-12 08:53 -31.13961 120.85537 23034 ft 391 kts 244°
2026-04-12 08:54 -31.14763 120.83655 23386 ft 393 kts 244°
2026-04-12 08:54 -31.16382 120.79849 24033 ft 397 kts 244°
2026-04-12 08:54 -31.17213 120.77896 24335 ft 399 kts 244°
2026-04-12 08:54 -31.18855 120.74037 24921 ft 402 kts 244°
2026-04-12 08:55 -31.20108 120.71094 25354 ft 405 kts 244°
2026-04-12 08:55 -31.21364 120.68144 25786 ft 407 kts 244°
2026-04-12 08:55 -31.22631 120.65168 26213 ft 410 kts 244°
2026-04-12 08:55 -31.23903 120.62175 26635 ft 412 kts 244°
2026-04-12 08:56 -31.25183 120.59159 27037 ft 415 kts 244°
2026-04-12 08:56 -31.26470 120.56126 27439 ft 417 kts 244°
2026-04-12 08:56 -31.27763 120.53078 27827 ft 420 kts 244°
2026-04-12 08:56 -31.29062 120.50007 28221 ft 422 kts 244°
2026-04-12 08:57 -31.30368 120.46915 28607 ft 425 kts 244°
2026-04-12 08:57 -31.31647 120.43843 28988 ft 427 kts 245°
2026-04-12 08:57 -31.32898 120.40673 29374 ft 430 kts 246°
2026-04-12 08:57 -31.34113 120.37463 29752 ft 432 kts 247°
2026-04-12 08:58 -31.35310 120.34226 30135 ft 435 kts 247°
2026-04-12 08:58 -31.36106 120.32067 30357 ft 436 kts 247°
2026-04-12 08:58 -31.37726 120.27700 30779 ft 439 kts 247°
2026-04-12 08:58 -31.38942 120.24462 31104 ft 440 kts 246°
2026-04-12 08:59 -31.40183 120.21180 31427 ft 442 kts 246°
2026-04-12 08:59 -31.41027 120.18956 31684 ft 442 kts 247°
2026-04-12 08:59 -31.42675 120.14619 32307 ft 439 kts 247°
2026-04-12 08:59 -31.43512 120.12419 32643 ft 437 kts 247°
2026-04-12 09:00 -31.45138 120.08116 33235 ft 435 kts 247°
2026-04-12 09:00 -31.46357 120.04883 33716 ft 434 kts 248°
2026-04-12 09:00 -31.47573 120.01656 34175 ft 432 kts 248°
2026-04-12 09:00 -31.48377 119.99525 34438 ft 431 kts 248°
2026-04-12 09:01 -31.49585 119.96319 34827 ft 429 kts 248°
2026-04-12 09:01 -31.50785 119.93124 35208 ft 428 kts 248°
2026-04-12 09:01 -31.52380 119.88867 35708 ft 426 kts 248°
2026-04-12 09:01 -31.53170 119.86759 35938 ft 425 kts 248°
2026-04-12 09:02 -31.54754 119.82518 36100 ft 423 kts 248°
2026-04-12 09:02 -31.56707 119.77283 36105 ft 420 kts 248°
2026-04-12 09:03 -31.59043 119.71013 36098 ft 420 kts 248°
2026-04-12 09:03 -31.61393 119.64732 36098 ft 420 kts 248°
2026-04-12 09:04 -31.63719 119.58496 36101 ft 420 kts 248°
2026-04-12 09:04 -31.66050 119.52209 36108 ft 420 kts 248°
2026-04-12 09:05 -31.68379 119.45916 36107 ft 420 kts 248°
2026-04-12 09:05 -31.70707 119.39612 36108 ft 420 kts 248°
2026-04-12 09:06 -31.73031 119.33309 36107 ft 420 kts 248°
2026-04-12 09:06 -31.75352 119.27008 36111 ft 420 kts 248°
2026-04-12 09:07 -31.77678 119.20705 36108 ft 420 kts 248°
2026-04-12 09:07 -31.79998 119.14409 36108 ft 420 kts 248°
2026-04-12 09:08 -31.82300 119.08107 36104 ft 419 kts 248°
2026-04-12 09:08 -31.84602 119.01798 36102 ft 419 kts 248°
2026-04-12 09:09 -31.86894 118.95546 36100 ft 419 kts 248°
2026-04-12 09:09 -31.89195 118.89239 36094 ft 419 kts 248°
2026-04-12 09:10 -31.91489 118.82931 36097 ft 419 kts 248°
2026-04-12 09:10 -31.93777 118.76608 36094 ft 420 kts 248°
2026-04-12 09:11 -31.96068 118.70282 36096 ft 420 kts 248°
2026-04-12 09:11 -31.98363 118.63958 36099 ft 420 kts 248°
2026-04-12 09:12 -32.00651 118.57615 36095 ft 420 kts 248°
2026-04-12 09:12 -32.02920 118.51318 36089 ft 420 kts 248°
2026-04-12 09:13 -32.05204 118.44974 36093 ft 420 kts 248°
2026-04-12 09:13 -32.07484 118.38631 36089 ft 420 kts 248°
2026-04-12 09:14 -32.09924 118.32367 35923 ft 420 kts 245°
2026-04-12 09:14 -32.11176 118.29304 35772 ft 409 kts 245°
2026-04-12 09:14 -32.12403 118.26323 35694 ft 397 kts 245°
2026-04-12 09:14 -32.13586 118.23427 35595 ft 386 kts 245°
2026-04-12 09:15 -32.14722 118.20608 35504 ft 375 kts 246°
2026-04-12 09:15 -32.16882 118.15167 35362 ft 365 kts 246°
2026-04-12 09:15 -32.17955 118.12441 35112 ft 366 kts 246°
2026-04-12 09:16 -32.19027 118.09718 34723 ft 366 kts 246°
2026-04-12 09:16 -32.20104 118.06992 34326 ft 367 kts 245°
2026-04-12 09:16 -32.21186 118.04255 33894 ft 368 kts 245°
2026-04-12 09:16 -32.22268 118.01513 33465 ft 368 kts 245°
2026-04-12 09:17 -32.23349 117.98770 33052 ft 368 kts 245°
2026-04-12 09:17 -32.24435 117.96029 32644 ft 368 kts 245°
2026-04-12 09:17 -32.25519 117.93294 32237 ft 368 kts 245°
2026-04-12 09:17 -32.26601 117.90555 31833 ft 368 kts 245°
2026-04-12 09:18 -32.27686 117.87809 31441 ft 368 kts 245°
2026-04-12 09:18 -32.28768 117.85064 31035 ft 369 kts 245°
2026-04-12 09:18 -32.29848 117.82316 30647 ft 369 kts 245°
2026-04-12 09:18 -32.30927 117.79565 30257 ft 369 kts 245°
2026-04-12 09:19 -32.32008 117.76808 29827 ft 369 kts 245°
2026-04-12 09:19 -32.33082 117.74065 29463 ft 367 kts 245°
2026-04-12 09:19 -32.34149 117.71339 29078 ft 364 kts 245°
2026-04-12 09:20 -32.35538 117.65697 28339 ft 360 kts 265°
2026-04-12 09:20 -32.35511 117.62750 27969 ft 358 kts 276°
2026-04-12 09:20 -32.34331 117.57056 27211 ft 355 kts 284°
2026-04-12 09:21 -32.33656 117.54257 26830 ft 353 kts 284°
2026-04-12 09:21 -32.32988 117.51476 26439 ft 351 kts 284°
2026-04-12 09:21 -32.32322 117.48703 26061 ft 349 kts 284°
2026-04-12 09:21 -32.31662 117.45945 25662 ft 348 kts 284°
2026-04-12 09:22 -32.31001 117.43194 25264 ft 348 kts 284°
2026-04-12 09:22 -32.30339 117.40442 24865 ft 347 kts 284°
2026-04-12 09:22 -32.29681 117.37699 24446 ft 348 kts 284°
2026-04-12 09:22 -32.29019 117.34946 24033 ft 348 kts 284°
2026-04-12 09:23 -32.28355 117.32200 23606 ft 346 kts 284°
2026-04-12 09:23 -32.27696 117.29482 23146 ft 341 kts 284°
2026-04-12 09:23 -32.27049 117.26810 22737 ft 336 kts 284°
2026-04-12 09:23 -32.26407 117.24160 22333 ft 335 kts 285°
2026-04-12 09:24 -32.25766 117.21520 21929 ft 334 kts 285°
2026-04-12 09:24 -32.25126 117.18885 21522 ft 333 kts 285°
2026-04-12 09:24 -32.24488 117.16261 21114 ft 332 kts 285°
2026-04-12 09:24 -32.23851 117.13642 20711 ft 331 kts 285°
2026-04-12 09:25 -32.23214 117.11036 20295 ft 330 kts 285°
2026-04-12 09:25 -32.22573 117.08418 19893 ft 330 kts 285°
2026-04-12 09:25 -32.21945 117.05853 19507 ft 329 kts 286°
2026-04-12 09:25 -32.21307 117.03260 19105 ft 329 kts 286°
2026-04-12 09:26 -32.20667 117.00667 18702 ft 329 kts 286°
2026-04-12 09:26 -32.20029 116.98081 18289 ft 328 kts 286°
2026-04-12 09:26 -32.19393 116.95494 17851 ft 327 kts 286°
2026-04-12 09:26 -32.18764 116.92924 17450 ft 325 kts 286°
2026-04-12 09:27 -32.18027 116.90415 17052 ft 322 kts 295°
2026-04-12 09:27 -32.16858 116.88175 16660 ft 320 kts 307°
2026-04-12 09:27 -32.15485 116.86111 16265 ft 319 kts 308°
2026-04-12 09:27 -32.14120 116.84058 15866 ft 317 kts 307°
2026-04-12 09:28 -32.12767 116.82017 15474 ft 315 kts 307°
2026-04-12 09:28 -32.11418 116.79984 15088 ft 314 kts 307°
2026-04-12 09:28 -32.10078 116.77963 14709 ft 312 kts 307°
2026-04-12 09:28 -32.08742 116.75950 14319 ft 311 kts 307°
2026-04-12 09:29 -32.07415 116.73948 13938 ft 310 kts 307°
2026-04-12 09:29 -32.06535 116.72623 13659 ft 309 kts 308°
2026-04-12 09:29 -32.04788 116.69997 13130 ft 306 kts 308°
2026-04-12 09:29 -32.03478 116.68028 12745 ft 304 kts 308°
2026-04-12 09:30 -32.02176 116.66072 12367 ft 302 kts 308°
2026-04-12 09:30 -32.00885 116.64128 11989 ft 300 kts 308°
2026-04-12 09:30 -31.99599 116.62195 11610 ft 299 kts 308°
2026-04-12 09:30 -31.98318 116.60272 11231 ft 298 kts 308°
2026-04-12 09:31 -31.97045 116.58359 10860 ft 297 kts 308°
2026-04-12 09:31 -31.95769 116.56445 10478 ft 296 kts 308°
2026-04-12 09:31 -31.94518 116.54519 10003 ft 299 kts 303°
2026-04-12 09:31 -31.93445 116.52421 9615 ft 297 kts 301°
2026-04-12 09:32 -31.92391 116.50348 9258 ft 294 kts 301°
2026-04-12 09:32 -31.91339 116.48292 8882 ft 293 kts 301°
2026-04-12 09:32 -31.90286 116.46243 8509 ft 292 kts 301°
2026-04-12 09:32 -31.89238 116.44207 8129 ft 288 kts 301°
2026-04-12 09:33 -31.88213 116.42209 7764 ft 282 kts 301°
2026-04-12 09:33 -31.87209 116.40247 7405 ft 279 kts 302°
2026-04-12 09:33 -31.86208 116.38293 7039 ft 279 kts 302°
2026-04-12 09:33 -31.85194 116.36317 6500 ft 287 kts 302°
2026-04-12 09:34 -31.84166 116.34318 6211 ft 282 kts 302°
2026-04-12 09:34 -31.83166 116.32370 6069 ft 273 kts 302°
2026-04-12 09:34 -31.82183 116.30456 5636 ft 276 kts 302°
2026-04-12 09:34 -31.81179 116.28504 5147 ft 281 kts 301°
2026-04-12 09:35 -31.80257 116.26464 4678 ft 285 kts 288°
2026-04-12 09:35 -31.80044 116.24157 4317 ft 283 kts 264°
2026-04-12 09:35 -31.80588 116.22015 4237 ft 267 kts 242°
2026-04-12 09:35 -31.81503 116.20229 4183 ft 251 kts 239°
2026-04-12 09:36 -31.82431 116.18497 3901 ft 244 kts 239°
2026-04-12 09:36 -31.83314 116.16821 3604 ft 238 kts 239°
2026-04-12 09:36 -31.84155 116.15197 3308 ft 233 kts 239°
2026-04-12 09:36 -31.84718 116.14107 3106 ft 229 kts 238°
2026-04-12 09:37 -31.85263 116.13053 2914 ft 226 kts 238°
2026-04-12 09:37 -31.86580 116.10504 2451 ft 208 kts 239°
2026-04-12 09:37 -31.87078 116.09539 2275 ft 201 kts 238°
2026-04-12 09:37 -31.88009 116.07737 1932 ft 192 kts 237°
2026-04-12 09:38 -31.88688 116.06420 1704 ft 181 kts 234°
2026-04-12 09:38 -31.89317 116.05200 1460 ft 165 kts 235°
2026-04-12 09:38 -31.89871 116.04125 1265 ft 146 kts 238°
2026-04-12 09:38 -31.90208 116.03472 1153 ft 136 kts 237°
2026-04-12 09:39 -31.90708 116.02504 983 ft 139 kts 238°
2026-04-12 09:39 -31.91361 116.01238 747 ft 135 kts 237°
2026-04-12 09:39 -31.91849 116.00292 575 ft 132 kts 237°
2026-04-12 09:39 -31.92332 115.99355 384 ft 135 kts 237°
2026-04-12 09:40 -31.92645 115.98743 281 ft 132 kts 239°
2026-04-12 09:40 -31.92957 115.98122 183 ft 136 kts 236°
2026-04-12 09:40 -31.93670 115.96781 56 ft 61 kts 237°
2026-04-12 09:40 -31.93811 115.96473 55 ft 49 kts 241°
2026-04-12 09:41 -31.93889 115.96216 56 ft 26 kts 293°
2026-04-12 09:41 -31.93815 115.96187 52 ft 4 kts 22°
2026-04-12 09:41 -31.93780 115.96198 57 ft 7 kts
2026-04-12 09:41 -31.93723 115.96190 54 ft 10 kts 351°
2026-04-12 09:42 -31.93610 115.96182 55 ft 14 kts 13°
2026-04-12 09:42 -31.93545 115.96212 55 ft 16 kts 24°
2026-04-12 09:42 -31.93422 115.96289 53 ft 14 kts 24°
2026-04-12 09:43 -31.93239 115.96320 52 ft 8 kts 330°
2026-04-12 09:43 -31.93175 115.96206 52 ft 7 kts 317°
2026-04-12 09:43 -31.93174 115.96162 53 ft 5 kts 217°
2026-04-12 09:44 -31.93190 115.96153 50 ft 3 kts 201°
2026-04-12 09:44 -31.93200 115.96149 56 ft 1 kts 199°
2026-04-12 09:44 -31.93201 115.96148 56 ft 0 kts 199°
2026-04-12 09:44 -31.93203 115.96148 56 ft 0 kts 199°
2026-04-12 09:45 -31.93211 115.96144 57 ft 1 kts 199°